Weather History for BIKF - October, 2013

Change the Weather History Date:

Friday, October 11, 2013

  Actual Average Record
Temperature  
Mean Temperature 49 °F -  
Max Temperature 50 °F 41 °F - ()
Min Temperature 48 °F 33 °F - ()
Degree Days  
Heating Degree Days 16    
Moisture  
Dew Point 47 °F    
Average Humidity 94    
Maximum Humidity 100    
Minimum Humidity 83    
Precipitation  
Precipitation 0.00 in - - ()
Sea Level Pressure  
Sea Level Pressure 30.05 in    
Wind  
Wind Speed 21 mph ()    
Max Wind Speed 30 mph    
Max Gust Speed 44 mph    
Visibility 4.3 miles    
Events Fog , Rain    
T = Trace of Precipitation, MM = Missing Value Source: Averaged Metar Reports

Daily Weather History Graph

Daily Weather History Graph

Search for Another Location

Airport or City:

Trip Planner

Search our weather history database for the weather conditions in past years. The results will help you decide how hot, cold, wet, or windy it might be!

Date:

Astronomy

Oct. 11, 2013 Rise Set
Actual Time 8:08 AM GMT 6:24 PM GMT
Civil Twilight 7:20 AM GMT 7:11 PM GMT
Nautical Twilight 6:25 AM GMT 8:06 PM GMT
Astronomical Twilight 5:28 AM GMT 9:03 PM GMT
Moon 3:56 PM GMT (10/11) 10:46 PM GMT (10/11)
Length of Visible Light 11h 51m
Length of Day
10h 15m
Waxing Crescent, 45% of the Moon is Illuminated
Oct 11
Waxing Crescent
Oct 11
First Quarter
Oct 18
Full
Oct 26
Last Quarter
Nov 3
New

Hourly Weather History & Observations

Time (GMT) Temp. Dew Point Humidity Pressure Visibility Wind Dir Wind Speed Gust Speed Precip Events Conditions
12:00 AM 49 °F 48 °F 96% 30.08 in 0 mi SSE 20.7 mph - - Fog Heavy Fog
12:00 AM 48.2 °F 48.2 °F 100% 30.06 in 0.2 mi SSE 20.7 mph - N/A Fog Fog
12:30 AM 48.2 °F 48.2 °F 100% 30.06 in 0.2 mi SSE 19.6 mph - N/A Fog Fog
1:00 AM 48.2 °F 48.2 °F 100% 30.06 in 0.2 mi SSE 21.9 mph - N/A Fog Fog
1:30 AM 48.2 °F 48.2 °F 100% 30.06 in 0.2 mi SSE 18.4 mph - N/A Fog Fog
2:00 AM 48.2 °F 48.2 °F 100% 30.06 in 0.2 mi SSE 18.4 mph - N/A Fog Fog
2:30 AM 48.2 °F 48.2 °F 100% 30.06 in 0.2 mi SSE 19.6 mph - N/A Fog Fog
3:00 AM 48.2 °F 48.2 °F 100% 30.06 in 0.2 mi SSE 20.7 mph - N/A Fog Fog
3:30 AM 48.2 °F 48.2 °F 100% 30.06 in 0.2 mi South 19.6 mph - N/A Fog Fog
4:00 AM 48.2 °F 48.2 °F 100% 30.04 in 0.3 mi South 20.7 mph - N/A Fog , Rain Rain
4:30 AM 48.2 °F 48.2 °F 100% 30.04 in 1.9 mi South 20.7 mph - N/A Rain Light Rain
5:00 AM 48.2 °F 48.2 °F 100% 30.04 in 1.1 mi South 19.6 mph - N/A   Light Drizzle
5:30 AM 48.2 °F 48.2 °F 100% 30.04 in 0.4 mi South 20.7 mph - N/A Fog Fog
6:00 AM 49 °F 48 °F 96% 30.05 in 0 mi South 20.7 mph - - Fog Heavy Fog
6:00 AM 48.2 °F 48.2 °F 100% 30.04 in 0.4 mi South 20.7 mph - N/A Fog Fog
6:30 AM 48.2 °F 48.2 °F 100% 30.04 in 1.9 mi South 20.7 mph - N/A Fog Light Drizzle
7:00 AM 48.2 °F 48.2 °F 100% 30.04 in 1.9 mi SSE 20.7 mph - N/A Fog Light Drizzle
7:30 AM 48.2 °F 48.2 °F 100% 30.04 in 3.7 mi SSE 21.9 mph - N/A   Light Drizzle
8:00 AM 48.2 °F 48.2 °F 100% 30.04 in 5.6 mi SSE 23.0 mph 34.5 mph N/A   Light Drizzle
8:30 AM 48.2 °F 48.2 °F 100% 30.04 in 6.2 mi SSE 24.2 mph - N/A   Light Drizzle
9:00 AM 48.2 °F 48.2 °F 100% 30.04 in 6.2 mi SSE 24.2 mph - N/A   Mostly Cloudy
9:30 AM 48.2 °F 48.2 °F 100% 30.04 in 6.2 mi SSE 23.0 mph - N/A   Overcast
10:00 AM 48.2 °F 48.2 °F 100% 30.04 in 6.2 mi SSE 25.3 mph - N/A   Mostly Cloudy
10:30 AM 48.2 °F 46.4 °F 93% 30.06 in 6.2 mi SSE 25.3 mph - N/A   Mostly Cloudy
11:00 AM 50.0 °F 46.4 °F 87% 30.06 in 6.2 mi SSE 25.3 mph - N/A   Mostly Cloudy
11:30 AM 50.0 °F 46.4 °F 87% 30.06 in 6.2 mi SSE 25.3 mph - N/A   Mostly Cloudy
12:00 PM 49 °F 46 °F 87% 30.06 in 7 mi SSE 25.3 mph - -   Mist
12:00 PM 50.0 °F 46.4 °F 87% 30.06 in 6.2 mi SSE 26.5 mph - N/A   Overcast
12:30 PM 50.0 °F 48.2 °F 94% 30.06 in 6.2 mi SSE 25.3 mph - N/A   Mostly Cloudy
1:00 PM 50.0 °F 48.2 °F 94% 30.06 in 6.2 mi SE 26.5 mph 38.0 mph N/A   Mostly Cloudy
1:30 PM 50.0 °F 48.2 °F 94% 30.06 in 6.2 mi SSE 26.5 mph - N/A   Mostly Cloudy
2:00 PM 50.0 °F 48.2 °F 94% 30.06 in 6.2 mi SSE 28.8 mph - N/A   Mostly Cloudy
2:30 PM 50.0 °F 48.2 °F 94% 30.04 in 6.2 mi SSE 27.6 mph - N/A   Mostly Cloudy
3:00 PM 50.0 °F 48.2 °F 94% 30.04 in 6.2 mi SSE 29.9 mph 43.7 mph N/A   Mostly Cloudy
3:30 PM 50.0 °F 46.4 °F 87% 30.04 in 6.2 mi SSE 28.8 mph 40.3 mph N/A   Mostly Cloudy
4:00 PM 50.0 °F 46.4 °F 87% 30.04 in 6.2 mi SSE 29.9 mph - N/A   Mostly Cloudy
4:30 PM 50.0 °F 46.4 °F 87% 30.04 in 6.2 mi SSE 28.8 mph - N/A   Mostly Cloudy
5:00 PM 50.0 °F 46.4 °F 87% 30.04 in 6.2 mi SE 26.5 mph 39.1 mph N/A   Mostly Cloudy
5:30 PM 50.0 °F 46.4 °F 87% 30.04 in 6.2 mi SE 27.6 mph 39.1 mph N/A   Mostly Cloudy
6:00 PM 49 °F 45 °F 83% 30.06 in 9 mi SE 27.6 mph - -   Mostly Cloudy
6:00 PM 50.0 °F 46.4 °F 87% 30.04 in 6.2 mi SE 27.6 mph 39.1 mph N/A   Mostly Cloudy
6:30 PM 48.2 °F 46.4 °F 93% 30.04 in 6.2 mi SE 27.6 mph 39.1 mph N/A   Mostly Cloudy
7:00 PM 48.2 °F 46.4 °F 93% 30.06 in 3.7 mi SE 27.6 mph 39.1 mph N/A   Light Drizzle
7:30 PM 48.2 °F 46.4 °F 93% 30.04 in 5.6 mi SE 27.6 mph 40.3 mph N/A   Light Drizzle
8:00 PM 48.2 °F 46.4 °F 93% 30.04 in 6.2 mi SE 26.5 mph 38.0 mph N/A   Mostly Cloudy
8:30 PM 50.0 °F 46.4 °F 87% 30.06 in 6.2 mi SE 28.8 mph - N/A   Mostly Cloudy
9:00 PM 48.2 °F 46.4 °F 93% 30.06 in 6.2 mi SE 26.5 mph 39.1 mph N/A   Mostly Cloudy
9:30 PM 50.0 °F 46.4 °F 87% 30.06 in 6.2 mi SE 28.8 mph 42.6 mph N/A   Mostly Cloudy
10:00 PM 50.0 °F 46.4 °F 87% 30.06 in 6.2 mi SE 28.8 mph - N/A   Mostly Cloudy
10:30 PM 50.0 °F 46.4 °F 87% 30.06 in 6.2 mi SE 28.8 mph 41.4 mph N/A   Mostly Cloudy
11:00 PM 48.2 °F 46.4 °F 93% 30.06 in 5.6 mi SE 27.6 mph 39.1 mph N/A   Light Drizzle
11:30 PM 48.2 °F 46.4 °F 93% 30.09 in 6.2 mi SE 29.9 mph - N/A   Mostly Cloudy